Date,TemperatureHighF,TemperatureAvgF,TemperatureLowF,DewpointHighF,DewpointAvgF,DewpointLowF,HumidityHigh,HumidityAvg,HumidityLow,PressureMaxIn,PressureMinIn,WindSpeedMaxMPH,WindSpeedAvgMPH,GustSpeedMaxMPH,PrecipitationSumIn
2013-1-1,20,2,-20,17,-2,-24,90,83,71,30.33,30.08,13,2,13,0.00
2013-1-2,21,16,13,19,14,11,94,91,87,30.08,29.96,8,2,9,0.00
2013-1-3,20,12,7,17,9,3,89,86,78,30.27,30.08,11,5,14,0.00
2013-1-4,28,17,4,20,13,1,95,82,70,30.13,30.03,13,4,13,0.00
2013-1-5,24,14,3,16,10,0,94,85,72,30.10,29.86,8,2,10,0.00
2013-1-6,22,13,2,17,10,-1,94,85,72,30.24,30.03,13,2,13,0.00
2013-1-7,36,28,20,28,23,17,94,82,70,30.05,29.89,17,4,19,0.01
2013-1-8,36,25,10,30,22,8,95,88,76,29.96,29.75,16,3,17,0.00
2013-1-9,34,29,18,28,24,15,93,80,69,30.34,29.91,21,5,22,0.00
2013-1-10,40,35,29,34,28,24,98,77,54,30.28,29.70,14,5,14,0.30
2013-1-11,41,37,34,40,37,34,99,99,98,29.70,29.34,13,3,13,0.02
2013-1-12,38,15,4,38,11,0,99,83,73,30.08,29.34,25,10,25,0.00
2013-1-13,10,5,2,5,0,-2,87,83,76,30.27,30.05,11,3,13,0.00
2013-1-14,14,7,1,11,4,-1,92,85,71,30.43,30.27,13,3,14,0.00
2013-1-15,31,21,10,21,15,7,90,78,63,30.31,29.85,16,4,17,0.00
2013-1-16,37,26,10,34,22,4,96,84,66,30.21,29.67,17,4,18,0.01
2013-1-17,20,11,2,13,5,-3,90,77,63,30.41,30.20,11,2,12,0.00
2013-1-18,42,31,17,34,26,13,94,84,73,30.30,29.72,14,5,14,0.01
2013-1-19,39,24,2,34,20,-3,97,83,63,30.22,29.65,25,5,29,0.00
2013-1-20,10,4,-2,3,-3,-8,86,75,63,30.41,30.22,16,4,16,0.00
2013-1-21,-2,-6,-11,-8,-12,-17,86,75,67,30.39,30.30,15,4,18,0.00
2013-1-22,7,-2,-11,0,-8,-15,85,76,67,30.46,30.28,8,2,8,0.00
2013-1-23,17,8,-4,12,1,-14,90,72,56,30.62,30.18,16,3,16,0.00
2013-1-24,15,4,-6,7,-6,-14,73,64,51,30.69,30.21,13,4,14,0.00
2013-1-25,20,13,2,15,6,-2,83,74,60,30.31,29.98,20,5,22,0.00
2013-1-26,25,13,-4,14,5,-7,89,72,56,30.37,30.12,11,3,14,0.00
2013-1-27,32,31,25,32,25,15,97,80,60,30.12,29.76,14,3,14,0.06
2013-1-28,36,32,31,35,32,30,98,98,97,29.86,29.58,11,2,11,0.11
2013-1-29,35,32,28,33,30,24,98,94,84,29.70,29.47,12,2,12,0.06
2013-1-30,28,18,9,24,13,4,86,82,76,29.75,29.59,13,4,15,0.00
2013-1-31,9,0,-8,5,-4,-14,85,79,73,30.31,29.75,18,6,18,0.00